Eships Dana — ZDJT6 — position and weather

sailwx.info

Track history (hours):
 
Tides and Currents Weather Stations Pressure Air Temp Water Temp Dewpoint Dewpoint Depression Visibility Wind Speed Wind Dir Waves Ship Positions

Eships Dana

Last reported at 2014-Jul-28 23:33 UTC. Time now 2014-Jul-29 00:33 UTC.
Position N 59°14' E 005°31'.

Length 116 m; draft 5.8 m.

Type: Tanker. MMSI: 236566000.

Date/timePositionNaut miles runAvg speedWind from/ knotsBaromVisibWave heightAir tempDewpointWater temp
2014-Jul-28 23:33N 59°14' E 005°31'0 0.0
2014-Jul-28 22:24N 59°14' E 005°31'0 0.4
2014-Jul-28 21:32N 59°14' E 005°31'9 8.8
2014-Jul-28 20:33N 59°06' E 005°25'1010.2
2014-Jul-28 19:33N 59°01' E 005°07'1 1.4
2014-Jul-28 18:33N 59°00' E 005°05'6 5.9
2014-Jul-28 17:33N 58°54' E 005°08'1313.3
2014-Jul-28 16:33N 58°41' E 005°11'34512.8
2014-Jul-27 13:32N 53°07' E 002°42'5212.1
2014-Jul-27 09:15N 52°15' E 002°40'1911.3
2014-Jul-27 07:33N 51°56' E 002°41'1312.2
2014-Jul-27 06:31N 51°43' E 002°43'1312.8
2014-Jul-27 05:29N 51°30' E 002°43'7 7.9
2014-Jul-27 04:33N 51°25' E 002°52'1312.9
2014-Jul-27 03:33N 51°25' E 003°13'1312.7
2014-Jul-27 02:33N 51°26' E 003°33'6 5.9
2014-Jul-27 01:32N 51°28' E 003°42'0 0.0
2014-Jul-27 00:29N 51°28' E 003°42'0 0.0
2014-Jul-26 23:29N 51°28' E 003°42'0 0.0
2014-Jul-26 22:32N 51°28' E 003°42'0 0.0
2014-Jul-26 21:29N 51°28' E 003°42'0 0.0
2014-Jul-26 20:29N 51°28' E 003°42'0 0.0
2014-Jul-26 19:29N 51°28' E 003°42'0 0.0
2014-Jul-26 18:29N 51°28' E 003°42'0 0.0
2014-Jul-26 17:29N 51°28' E 003°42'0 0.0
2014-Jul-26 16:32N 51°28' E 003°42'0 0.0
2014-Jul-26 15:32N 51°28' E 003°42'0 0.0
2014-Jul-26 14:33N 51°28' E 003°42'6 5.8
2014-Jul-26 13:33N 51°25' E 003°34'1514.7
2014-Jul-26 12:33N 51°24' E 003°10'1414.1
2014-Jul-26 11:33N 51°22' E 002°48'1211.2
2014-Jul-26 10:28N 51°21' E 002°28'1213.1
2014-Jul-26 09:33N 51°16' E 002°11'1211.9
2014-Jul-26 08:33N 51°10' E 001°55'1010.2
2014-Jul-26 07:33N 51°04' E 001°41'10 9.9
2014-Jul-26 06:33N 50°57' E 001°31'3710.7
2014-Jul-26 03:07N 50°29' E 000°54'711.9
2014-Jul-26 02:33N 50°27' E 000°44'1511.8
2014-Jul-26 01:18N 50°23' E 000°21'2212.3
2014-Jul-25 23:30N 50°17' W 000°12'6014.4
2014-Jul-25 19:20N 49°55' W 001°40'1416.6
2014-Jul-25 18:30N 49°54' W 002°01'1414.8
2014-Jul-25 17:32N 49°53' W 002°23'12113.5
2014-Jul-25 08:33N 48°58' W 005°09'1413.1
2014-Jul-25 07:29N 48°51' W 005°27'1213.1
2014-Jul-25 06:33N 48°43' W 005°41'5412.4
2014-Jul-25 02:11N 47°52' W 005°14'1014.4
2014-Jul-25 01:28N 47°44' W 005°04'1314.2
2014-Jul-25 00:33N 47°36' W 004°49'1714.4
2014-Jul-24 23:22N 47°29' W 004°26'1314.2
2014-Jul-24 22:26N 47°24' W 004°08'1314.3
2014-Jul-24 21:34N 47°17' W 003°52'1414.1
2014-Jul-24 20:34N 47°12' W 003°33'1414.3
2014-Jul-24 19:34N 47°07' W 003°13'33 5.2
2014-Jul-24 13:18N 47°07' W 002°25'0 0.0
2014-Jul-24 12:30N 47°07' W 002°25'0 0.0
2014-Jul-24 04:33N 47°07' W 002°25'0 0.0
2014-Jul-24 03:33N 47°07' W 002°25'0 0.0
2014-Jul-24 02:33N 47°07' W 002°25'0 0.0
2014-Jul-24 01:33N 47°07' W 002°25'0 0.0
2014-Jul-23 19:18N 47°07' W 002°25'  
2014-Jul-21 08:20N 38°33' W 009°56'1212.6
2014-Jul-21 07:23N 38°21' W 009°53'1112.5
2014-Jul-21 06:31N 38°11' W 009°52'1212.1
2014-Jul-21 05:33N 37°59' W 009°52'1312.4
2014-Jul-21 04:30N 37°46' W 009°52'1212.4
2014-Jul-21 03:31N 37°34' W 009°52'1212.1
2014-Jul-21 02:33N 37°22' W 009°52'1211.9
2014-Jul-21 01:33N 37°10' W 009°53'1212.2
2014-Jul-21 00:32N 36°58' W 009°53'1312.8
2014-Jul-20 23:33N 36°45' W 009°53'1312.5
2014-Jul-20 22:32N 36°34' W 009°44'1212.3
2014-Jul-20 21:32N 36°24' W 009°36'1412.3
2014-Jul-20 20:24N 36°13' W 009°26'1012.1
2014-Jul-20 19:33N 36°05' W 009°18'  
Track history (hours):
 
Tides and Currents Weather Stations Pressure Air Temp Water Temp Dewpoint Dewpoint Depression Visibility Wind Speed Wind Dir Waves Ship Positions

Eships Dana

Last reported at 2014-Jul-28 23:33 UTC. Time now 2014-Jul-29 00:33 UTC.
Position N 59°14' E 005°31'.

Length 116 m; draft 5.8 m.

Type: Tanker. MMSI: 236566000.

Date/timePositionNaut miles runAvg speedWind from/ knotsBaromVisibWave heightAir tempDewpointWater temp
2014-Jul-28 23:33N 59°14' E 005°31'0 0.0
2014-Jul-28 22:24N 59°14' E 005°31'0 0.4
2014-Jul-28 21:32N 59°14' E 005°31'9 8.8
2014-Jul-28 20:33N 59°06' E 005°25'1010.2
2014-Jul-28 19:33N 59°01' E 005°07'1 1.4
2014-Jul-28 18:33N 59°00' E 005°05'6 5.9
2014-Jul-28 17:33N 58°54' E 005°08'1313.3
2014-Jul-28 16:33N 58°41' E 005°11'34512.8
2014-Jul-27 13:32N 53°07' E 002°42'5212.1
2014-Jul-27 09:15N 52°15' E 002°40'1911.3
2014-Jul-27 07:33N 51°56' E 002°41'1312.2
2014-Jul-27 06:31N 51°43' E 002°43'1312.8
2014-Jul-27 05:29N 51°30' E 002°43'7 7.9
2014-Jul-27 04:33N 51°25' E 002°52'1312.9
2014-Jul-27 03:33N 51°25' E 003°13'1312.7
2014-Jul-27 02:33N 51°26' E 003°33'6 5.9
2014-Jul-27 01:32N 51°28' E 003°42'0 0.0
2014-Jul-27 00:29N 51°28' E 003°42'0 0.0
2014-Jul-26 23:29N 51°28' E 003°42'0 0.0
2014-Jul-26 22:32N 51°28' E 003°42'0 0.0
2014-Jul-26 21:29N 51°28' E 003°42'0 0.0
2014-Jul-26 20:29N 51°28' E 003°42'0 0.0
2014-Jul-26 19:29N 51°28' E 003°42'0 0.0
2014-Jul-26 18:29N 51°28' E 003°42'0 0.0
2014-Jul-26 17:29N 51°28' E 003°42'0 0.0
2014-Jul-26 16:32N 51°28' E 003°42'0 0.0
2014-Jul-26 15:32N 51°28' E 003°42'0 0.0
2014-Jul-26 14:33N 51°28' E 003°42'6 5.8
2014-Jul-26 13:33N 51°25' E 003°34'1514.7
2014-Jul-26 12:33N 51°24' E 003°10'1414.1
2014-Jul-26 11:33N 51°22' E 002°48'1211.2
2014-Jul-26 10:28N 51°21' E 002°28'1213.1
2014-Jul-26 09:33N 51°16' E 002°11'1211.9
2014-Jul-26 08:33N 51°10' E 001°55'1010.2
2014-Jul-26 07:33N 51°04' E 001°41'10 9.9
2014-Jul-26 06:33N 50°57' E 001°31'3710.7
2014-Jul-26 03:07N 50°29' E 000°54'711.9
2014-Jul-26 02:33N 50°27' E 000°44'1511.8
2014-Jul-26 01:18N 50°23' E 000°21'2212.3
2014-Jul-25 23:30N 50°17' W 000°12'6014.4
2014-Jul-25 19:20N 49°55' W 001°40'1416.6
2014-Jul-25 18:30N 49°54' W 002°01'1414.8
2014-Jul-25 17:32N 49°53' W 002°23'12113.5
2014-Jul-25 08:33N 48°58' W 005°09'1413.1
2014-Jul-25 07:29N 48°51' W 005°27'1213.1
2014-Jul-25 06:33N 48°43' W 005°41'5412.4
2014-Jul-25 02:11N 47°52' W 005°14'1014.4
2014-Jul-25 01:28N 47°44' W 005°04'1314.2
2014-Jul-25 00:33N 47°36' W 004°49'1714.4
2014-Jul-24 23:22N 47°29' W 004°26'1314.2
2014-Jul-24 22:26N 47°24' W 004°08'1314.3
2014-Jul-24 21:34N 47°17' W 003°52'1414.1
2014-Jul-24 20:34N 47°12' W 003°33'1414.3
2014-Jul-24 19:34N 47°07' W 003°13'33 5.2
2014-Jul-24 13:18N 47°07' W 002°25'0 0.0
2014-Jul-24 12:30N 47°07' W 002°25'0 0.0
2014-Jul-24 04:33N 47°07' W 002°25'0 0.0
2014-Jul-24 03:33N 47°07' W 002°25'0 0.0
2014-Jul-24 02:33N 47°07' W 002°25'0 0.0
2014-Jul-24 01:33N 47°07' W 002°25'0 0.0
2014-Jul-23 19:18N 47°07' W 002°25'  
2014-Jul-21 08:20N 38°33' W 009°56'1212.6
2014-Jul-21 07:23N 38°21' W 009°53'1112.5
2014-Jul-21 06:31N 38°11' W 009°52'1212.1
2014-Jul-21 05:33N 37°59' W 009°52'1312.4
2014-Jul-21 04:30N 37°46' W 009°52'1212.4
2014-Jul-21 03:31N 37°34' W 009°52'1212.1
2014-Jul-21 02:33N 37°22' W 009°52'1211.9
2014-Jul-21 01:33N 37°10' W 009°53'1212.2
2014-Jul-21 00:32N 36°58' W 009°53'1312.8
2014-Jul-20 23:33N 36°45' W 009°53'1312.5
2014-Jul-20 22:32N 36°34' W 009°44'1212.3
2014-Jul-20 21:32N 36°24' W 009°36'1412.3
2014-Jul-20 20:24N 36°13' W 009°26'1012.1
2014-Jul-20 19:33N 36°05' W 009°18'  

Dump ship's entire track history